Fitchburg, MA

6:31 PM EDT on July 20, 2019 (GMT -0400)
Fitchburg Municipal

Weather History for KFIT - May, 2019

Change the Weather History Date:

Tuesday, May 7, 2019

  Actual Average (KORH) Record (KORH)
Temperature  
Mean Temperature 58 °F -  
Max Temperature 77 °F 61 °F 90 °F (1930)
Min Temperature 41 °F 42 °F 28 °F (1970)
Degree Days  
Heating Degree Days 7    
Growing Degree Days 8 (Base 50)    
Moisture  
Dew Point 46 °F    
Average Humidity 69    
Maximum Humidity 93    
Minimum Humidity 36    
Precipitation  
Precipitation 0.11 in - - ()
Sea Level Pressure  
Sea Level Pressure 30.12 in    
Wind  
Wind Speed 3 mph (West)    
Max Wind Speed 13 mph    
Max Gust Speed 22 mph    
Visibility 10 miles    
Events Rain    
Averages and records for this station are not official NWS values.
T = Trace of Precipitation, MM = Missing Value Source: NWS Daily Summary

Daily Weather History Graph

Daily Weather History Graph

Search for Another Location

Airport or City:

Astronomy

May. 07, 2019 Rise Set
Actual Time 5:34 AM EDT 7:53 PM EDT
Civil Twilight 5:03 AM EDT 8:24 PM EDT
Nautical Twilight 4:24 AM EDT 9:03 PM EDT
Astronomical Twilight 3:41 AM EDT 9:47 PM EDT
Moon 7:36 AM EDT (5/7) 10:52 PM EDT (5/7)
Length of Visible Light 15h 21m
Length of Day
14h 19m
Waxing Crescent, 8% of the Moon is Illuminated
May 7
Waxing Crescent
May 11
First Quarter
May 18
Full
May 26
Last Quarter
Jun 3
New

Hourly Weather History & Observations

Time (EDT) Temp. Dew Point Humidity Pressure Visibility Wind Dir Wind Speed Gust Speed Precip Events Conditions
12:52 AM 44.1 °F 37.9 °F 79% 30.14 in 10.0 mi Calm Calm - N/A   Clear
1:52 AM 44.1 °F 39.0 °F 82% 30.14 in 10.0 mi Calm Calm - N/A   Clear
2:52 AM 42.1 °F 37.9 °F 85% 30.15 in 10.0 mi Calm Calm - N/A   Clear
3:52 AM 43.0 °F 39.0 °F 86% 30.15 in 10.0 mi Calm Calm - N/A   Overcast
4:52 AM 42.1 °F 37.9 °F 85% 30.14 in 10.0 mi Calm Calm - N/A   Clear
5:52 AM 41.0 °F 37.9 °F 89% 30.14 in 10.0 mi Calm Calm - N/A   Clear
6:52 AM 48.9 °F 42.1 °F 77% 30.14 in 10.0 mi Calm Calm - N/A   Clear
7:52 AM 55.0 °F 39.0 °F 55% 30.14 in 10.0 mi SSW 12.7 mph - N/A   Overcast
8:52 AM 57.0 °F 42.1 °F 57% 30.14 in 10.0 mi NW 5.8 mph - N/A   Overcast
9:52 AM 62.1 °F 46.0 °F 56% 30.12 in 10.0 mi Calm Calm - N/A   Partly Cloudy
10:52 AM 66.9 °F 46.9 °F 49% 30.11 in 10.0 mi South 9.2 mph - N/A   Clear
11:52 AM 69.1 °F 48.0 °F 47% 30.10 in 10.0 mi Variable 5.8 mph 17.3 mph N/A   Scattered Clouds
12:52 PM 73.0 °F 46.9 °F 39% 30.08 in 10.0 mi SW 12.7 mph 21.9 mph N/A   Clear
1:52 PM 75.9 °F 46.9 °F 36% 30.06 in 10.0 mi WSW 9.2 mph 19.6 mph N/A   Clear
2:52 PM 73.9 °F 46.9 °F 38% 30.06 in 10.0 mi WSW 12.7 mph 18.4 mph N/A   Scattered Clouds
3:52 PM 73.0 °F 48.0 °F 41% 30.04 in 10.0 mi West 6.9 mph - N/A   Partly Cloudy
4:52 PM 72.0 °F 50.0 °F 46% 30.05 in 10.0 mi WNW 12.7 mph - N/A   Mostly Cloudy
5:52 PM 60.1 °F 54.0 °F 80% 30.11 in 3.0 mi NW 6.9 mph - 0.04 in Rain Light Rain
6:52 PM 59.0 °F 54.0 °F 83% 30.11 in 10.0 mi NW 5.8 mph - 0.04 in Rain Light Rain
7:52 PM 59.0 °F 55.0 °F 87% 30.13 in 7.0 mi Calm Calm - 0.02 in Rain Light Rain
8:52 PM 57.9 °F 54.0 °F 87% 30.13 in 10.0 mi Calm Calm - 0.01 in   Overcast
9:52 PM 57.0 °F 55.0 °F 93% 30.15 in 10.0 mi Calm Calm - 0.00 in   Overcast
10:52 PM 57.0 °F 54.0 °F 89% 30.15 in 10.0 mi Calm Calm - N/A   Mostly Cloudy
11:52 PM 55.9 °F 54.0 °F 93% 30.16 in 10.0 mi Calm Calm - N/A   Overcast